CAPE
0 0 0 0 0 0 0 0 0 0 15 0 0 0 0 0 0 0 0 0 0 0 84 87 275 162 77 4 4 3 2 5 4 2 4 6 5 4 7 9 24 22 6 10 7 4 3 1 0
0 0 0 0 0 0 0 0 4 50 0 0 0 0 2 13 0 0 0 0 0 0 117 16 183 211 29 2 4 3 3 6 6 4 6 8 6 7 7 23 7 4 4 5 4 2 0 0 0
0 0 0 0 0 0 0 0 0 31 13 0 0 0 52 58 0 0 0 0 3 20 45 2 45 255 49 0 0 1 0 5 6 5 8 8 9 11 5 5 4 4 5 4 4 3 2 0 0
0 0 0 0 0 0 0 0 0 15 62 32 44 25 0 0 0 0 0 0 0 6 17 0 6 192 115 0 0 0 0 3 6 7 8 7 7 1 1 3 7 4 3 6 6 3 1 0 0
0 0 0 0 0 0 0 0 0 0 0 111 68 5 2 0 5 0 0 0 0 0 0 0 0 74 145 36 10 0 0 3 6 4 7 8 5 11 10 13 11 4 6 7 6 4 0 0 0
0 0 0 0 0 0 0 0 0 0 0 0 117 48 1 0 0 0 0 0 0 0 0 0 0 30 101 51 29 0 0 0 4 5 7 12 9 9 6 7 5 5 7 6 1 0 0 0 0
0 0 0 0 0 0 0 0 0 0 0 0 96 76 2 0 0 0 0 0 0 0 0 0 0 1 60 64 31 0 0 0 4 6 5 2 3 3 1 0 1 2 2 0 0 0 0 0 0
0 0 0 0 0 0 0 0 0 0 0 44 134 82 44 41 8 0 0 0 0 0 0 0 0 0 8 40 19 0 0 0 0 1 2 0 0 0 0 0 0 0 0 0 0 0 0 0 0
0 6 0 0 0 0 0 0 0 1 0 3 121 92 57 41 27 0 0 0 0 0 0 0 0 0 11 0 8 0 0 0 0 0 0 0 0 0 0 0 0 0 0 0 0 0 0 0 0
0 5 0 0 0 0 0 0 0 4 0 0 44 9 19 11 22 0 0 0 0 0 0 0 5 9 17 10 1 0 0 0 0 0 0 0 0 0 0 0 0 0 0 0 0 0 0 0 0
0 0 0 0 0 0 0 0 0 0 0 0 0 4 32 9 0 0 0 0 0 0 0 0 13 34 6 1 1 0 0 0 0 0 0 0 0 0 0 0 0 0 0 4 0 0 0 0 0
0 0 0 0 0 0 0 0 0 0 0 0 0 26 6 6 3 0 0 0 0 0 0 0 18 10 1 0 0 0 0 0 0 0 0 0 0 0 0 0 0 0 15 9 0 0 0 0 0
0 0 0 0 0 0 0 0 0 0 0 0 2 7 11 0 1 1 0 0 0 0 0 0 23 13 1 0 0 0 0 0 0 0 0 0 0 0 0 0 3 1 0 0 0 0 0 0 0
0 0 0 0 0 0 0 0 0 0 0 0 0 0 10 0 8 0 0 0 0 0 0 1 26 0 0 0 0 0 0 0 0 0 0 0 0 0 7 16 5 1 0 0 0 0 0 0 0
0 0 0 0 0 0 0 0 0 0 0 0 0 0 0 0 0 2 4 0 0 0 0 0 1 0 0 0 0 0 0 0 0 0 0 0 0 0 15 0 0 0 0 0 0 0 0 0 0
0 0 0 0 0 0 0 0 0 0 0 0 0 0 0 0 0 0 0 0 0 0 0 0 0 0 0 0 0 0 0 0 0 0 0 0 3 11 7 0 0 0 0 0 0 0 0 0 0
0 0 0 0 0 0 0 0 0 0 0 0 0 0 0 0 0 6 15 9 0 0 0 0 0 0 0 0 0 0 0 0 0 0 0 0 0 0 0 0 0 0 0 0 0 0 0 0 0
0 0 0 0 0 0 0 0 0 0 0 0 0 0 0 0 0 24 16 52 3 0 0 0 0 0 0 0 0 0 0 0 0 0 2 2 0 0 0 0 0 0 0 0 0 0 0 0 0
0 0 0 0 0 0 0 0 0 0 0 0 0 0 0 0 0 28 30 34 21 0 0 0 0 0 0 0 0 0 0 0 0 0 0 0 0 0 0 0 0 0 0 0 0 0 0 0 0
0 0 0 0 0 0 0 0 0 0 0 0 0 0 0 0 0 1 84 91 40 0 0 0 0 0 0 0 0 0 0 0 0 0 0 0 0 0 0 0 0 0 0 0 0 0 0 0 0
0 0 0 0 0 0 0 0 0 0 0 0 0 0 0 0 0 0 86 104 61 2 0 0 0 0 0 0 0 0 0 0 0 0 0 0 0 0 0 0 0 0 0 0 0 0 0 0 0
0 0 0 0 0 0 0 0 0 0 0 0 0 0 0 0 0 0 1 65 61 30 0 0 0 0 0 0 0 0 0 0 0 0 0 0 0 0 0 0 0 0 0 0 0 0 0 0 0
0 0 0 0 0 0 0 0 0 0 0 0 0 0 0 0 0 0 2 12 70 25 0 0 0 0 0 0 0 0 0 0 0 0 0 0 0 0 0 0 0 0 0 0 0 0 0 0 0
0 0 0 0 0 0 0 0 0 0 0 0 0 0 0 0 0 0 0 7 84 53 5 0 0 0 0 0 0 0 0 0 0 0 0 0 0 0 0 0 0 0 0 0 0 0 0 0 0
0 0 0 0 0 0 0 0 0 0 0 0 0 0 0 0 0 0 0 14 80 94 12 0 0 1 0 0 0 0 0 0 0 0 0 0 0 0 0 0 0 0 0 0 0 0 0 0 0
0 0 0 0 0 0 0 0 0 0 0 0 0 0 0 0 0 0 0 0 108 84 73 17 1 5 0 0 0 0 0 0 0 0 0 0 0 0 0 0 0 0 0 0 0 0 0 0 0
0 0 0 0 0 0 0 0 0 0 0 0 0 0 0 0 0 0 0 0 0 120 117 87 64 38 0 0 0 0 0 0 4 1 0 0 0 1 1 0 0 0 0 0 0 0 0 0 0
0 0 0 0 0 0 0 0 0 0 0 0 0 0 0 0 0 0 0 0 0 101 132 90 97 1 2 3 2 3 5 3 4 3 2 2 3 2 1 1 0 0 0 0 0 0 0 0 0
0 0 0 0 0 0 0 0 1 3 2 0 2 1 1 1 0 0 1 0 0 24 70 6 0 1 3 4 8 9 6 5 3 4 4 3 2 0 1 0 0 0 0 0 0 0 0 0 0
0 4 0 0 0 0 0 0 0 0 2 1 2 0 0 1 0 0 1 1 0 1 0 0 5 9 9 7 12 8 6 4 3 2 1 2 1 1 1 1 0 0 0 0 0 0 0 0 0
CIN
-0 -0 -0 -0 -0 -0 -0 -0 -82 -16 -6 -0 -0 -0 -0 -0 -2 -8 -0 -0 -0 -0 -149 -134 -37 -56 -92 -0 -1 -0 -0 -0 -0 -1 -0 -0 -2 -0 -0 -2 -3 -3 -0 -0 -0 -0 -0 -0 -0
-0 -0 -0 -0 -0 -0 -0 -0 -15 -33 -0 -0 -0 -0 -7 -46 -0 -0 -0 -0 -0 -0 -139 -160 -60 -44 -133 -1 -0 -1 -0 -0 -0 -0 -0 -1 -1 -1 -1 -1 -3 -0 -1 -0 -0 -0 -0 -0 -0
-0 -0 -0 -0 -0 -0 -0 -0 -0 -19 -33 -0 -0 -0 -74 -122 -0 -0 -0 -0 -54 -249 -152 -58 -126 -21 -80 -0 -2 -2 -0 -0 -0 -0 -0 -1 -0 -2 -1 -0 -0 -0 -0 -0 -0 -0 -0 -0 -0
-0 -0 -0 -0 -0 -0 -0 -0 -0 -8 -31 -38 -51 -56 -0 -0 -0 -0 -0 -0 -0 -126 -219 -0 -38 -35 -36 -0 -0 -0 -0 -0 -0 -0 -0 -0 -0 -0 -0 -0 -1 -1 -3 -0 -0 -0 -0 -0 -0
-0 -0 -0 -0 -0 -0 -0 -0 -0 -0 -0 -28 -18 -23 -29 -0 -247 -0 -0 -0 -0 -0 -0 -0 -0 -63 -24 -57 -64 -0 -0 -0 -0 -0 -0 -1 -1 -0 -0 -0 -0 -0 -0 -0 -0 -0 -0 -0 -0
-0 -0 -0 -0 -0 -0 -0 -0 -0 -0 -0 -0 -27 -54 -21 -0 -0 -0 -0 -0 -0 -0 -0 -0 -0 -113 -29 -47 -50 -0 -0 -0 -1 -0 -1 -0 -0 -0 -0 -0 -0 -0 -0 -0 -0 -0 -0 -0 -0
-0 -0 -0 -0 -0 -0 -0 -0 -0 -0 -0 -0 -30 -33 -10 -0 -0 -0 -0 -0 -0 -0 -0 -0 -0 -18 -72 -60 -40 -0 -0 -0 -0 -1 -1 -0 -0 -0 -0 -0 -0 -0 -0 -0 -0 -0 -0 -0 -0
-0 -0 -0 -0 -0 -0 -0 -0 -1 -0 -0 -42 -39 -20 -115 -325 -274 -0 -0 -0 -0 -0 -0 -0 -0 -0 -117 -80 -43 -1 -0 -0 -0 -2 -1 -0 -0 -0 -0 -0 -0 -0 -0 -0 -0 -0 -0 -0 -0
-0 -0 -0 -0 -0 -0 -0 -0 -0 -12 -0 -67 -40 -38 -128 -294 -262 -0 -0 -0 -0 -4 -0 -0 -0 -0 -48 -0 -2 -2 -0 -0 -0 -0 -4 -0 -0 -0 -0 -0 -0 -0 -0 -0 -0 -0 -0 -0 -0
-0 -0 -0 -0 -0 -0 -0 -0 -0 -14 -0 -0 -39 -102 -227 -247 -263 -0 -0 -0 -0 -0 -0 -0 -8 -8 -0 -0 -7 -6 -0 -0 -0 -0 -0 -0 -0 -0 -0 -0 -0 -0 -0 -0 -0 -0 -0 -0 -0
-0 -0 -0 -0 -0 -0 -0 -0 -0 -0 -0 -0 -0 -40 -150 -187 -0 -0 -0 -0 -0 -0 -0 -0 -37 -75 -3 -3 -6 -6 -6 -0 -0 -0 -0 -0 -0 -0 -0 -0 -0 -0 -1 -13 -0 -0 -0 -0 -0
-0 -0 -0 -0 -0 -0 -0 -0 -0 -0 -0 -0 -2 -77 -47 -150 -205 -0 -0 -0 -0 -0 -0 -0 -23 -23 -9 -0 -0 -0 -5 -0 -0 -0 -0 -0 -0 -0 -0 -0 -0 -21 -17 -12 -0 -0 -0 -0 -0
-0 -0 -0 -0 -0 -0 -0 -0 -0 -0 -0 -0 -22 -55 -70 -0 -112 -54 -0 -0 -0 -0 -0 -0 -102 -37 -28 -0 -0 -0 -0 -0 -0 -0 -0 -0 -0 -0 -0 -0 -8 -14 -0 -0 -0 -0 -0 -0 -0
-0 -0 -0 -0 -0 -0 -0 -0 -0 -0 -0 -0 -0 -0 -43 -0 -148 -38 -0 -0 -0 -0 -0 -7 -84 -7 -18 -0 -0 -0 -0 -0 -0 -0 -0 -0 -0 -0 -16 -26 -38 -24 -0 -0 -0 -0 -0 -0 -0
-0 -0 -0 -0 -0 -0 -0 -0 -0 -0 -0 -0 -0 -0 -1 -4 -0 -59 -51 -0 -0 -0 -0 -0 -9 -1 -3 -4 -0 -0 -0 -0 -0 -0 -0 -0 -0 -0 -22 -29 -0 -0 -0 -0 -0 -0 -0 -0 -0
-0 -0 -0 -0 -0 -0 -0 -0 -0 -0 -0 -0 -0 -0 -0 -0 -0 -0 -0 -0 -0 -0 -0 -0 -0 -0 -0 -0 -0 -0 -0 -0 -0 -0 -0 -0 -15 -25 -24 -0 -0 -0 -0 -0 -0 -0 -0 -0 -0
-0 -0 -0 -0 -0 -0 -0 -0 -0 -0 -0 -0 -0 -0 -0 -0 -7 -57 -131 -61 -0 -0 -0 -0 -0 -0 -0 -0 -0 -0 -0 -0 -0 -0 -0 -0 -0 -0 -0 -0 -0 -0 -0 -0 -0 -0 -0 -0 -0
-0 -0 -0 -0 -0 -0 -0 -0 -0 -0 -0 -0 -0 -0 -0 -0 -0 -49 -88 -126 -83 -0 -0 -0 -0 -0 -0 -0 -0 -0 -0 -0 -0 -4 -29 -48 -0 -0 -0 -0 -0 -0 -0 -0 -0 -0 -0 -0 -0
-0 -0 -0 -0 -0 -0 -0 -0 -0 -0 -0 -0 -0 -0 -0 -0 -0 -47 -73 -119 -128 -0 -0 -0 -0 -0 -0 -0 -0 -0 -0 -0 -0 -0 -0 -0 -0 -0 -0 -0 -0 -0 -0 -0 -0 -0 -0 -0 -0
-0 -0 -0 -0 -0 -0 -0 -0 -0 -0 -0 -0 -0 -0 -0 -0 -0 -35 -129 -173 -142 -0 -0 -0 -0 -0 -0 -0 -0 -0 -0 -0 -0 -0 -0 -0 -0 -0 -0 -0 -0 -0 -0 -0 -0 -0 -0 -0 -0
-0 -0 -0 -0 -0 -0 -0 -0 -0 -0 -0 -0 -0 -0 -0 -0 -0 -0 -65 -141 -182 -33 -0 -0 -0 -0 -0 -0 -0 -0 -0 -0 -0 -0 -0 -0 -0 -0 -0 -0 -0 -0 -0 -0 -0 -0 -0 -0 -0
-0 -0 -0 -0 -0 -0 -0 -0 -0 -0 -0 -0 -0 -0 -0 -0 -0 -0 -59 -41 -165 -102 -0 -0 -0 -0 -0 -0 -0 -0 -0 -0 -0 -0 -0 -0 -0 -0 -0 -0 -0 -0 -0 -0 -0 -0 -0 -0 -0
-0 -0 -0 -0 -0 -0 -0 -0 -0 -0 -0 -0 -0 -0 -0 -0 -0 -0 -92 -48 -66 -74 -0 -0 -0 -0 -0 -0 -0 -0 -0 -0 -0 -0 -0 -0 -0 -0 -0 -0 -0 -0 -0 -0 -0 -0 -0 -0 -0
-0 -0 -0 -0 -0 -0 -0 -0 -0 -0 -0 -0 -0 -0 -0 -0 -0 -0 -0 -77 -44 -90 -52 -0 -0 -0 -0 -0 -0 -0 -0 -0 -0 -0 -0 -0 -0 -0 -0 -0 -0 -0 -0 -0 -0 -0 -0 -0 -0
-0 -0 -0 -0 -0 -0 -0 -0 -0 -0 -0 -0 -0 -0 -0 -0 -0 -0 -0 -113 -29 -83 -89 -0 -0 -0 -0 -0 -0 -0 -0 -0 -0 -0 -0 -0 -0 -0 -0 -0 -0 -0 -0 -0 -0 -0 -0 -0 -0
-0 -0 -0 -0 -0 -0 -0 -0 -0 -0 -0 -0 -0 -0 -0 -0 -0 -0 -0 -0 -19 -55 -102 -88 -27 -104 -0 -0 -0 -0 -0 -0 -0 -0 -0 -0 -0 -0 -0 -0 -0 -0 -0 -0 -0 -0 -0 -0 -0
-0 -0 -0 -1 -0 -0 -0 -0 -0 -0 -0 -0 -0 -0 -0 -0 -0 -0 -0 -0 -0 -23 -86 -116 -61 -52 -0 -0 -0 -0 -0 -0 -0 -0 -0 -0 -0 -0 -0 -0 -0 -0 -0 -0 -0 -0 -0 -0 -0
-0 -0 -0 -0 -0 -0 -0 -0 -0 -0 -0 -0 -0 -0 -0 -0 -0 -0 -0 -0 -0 -59 -71 -74 -97 -0 -0 -0 -0 -0 -0 -0 -0 -0 -0 -0 -0 -0 -0 -0 -0 -0 -0 -0 -0 -0 -0 -0 -0
-0 -0 -0 -0 -0 -0 -0 -0 -2 -0 -0 -0 -0 -0 -0 -0 -0 -0 -0 -0 -0 -109 -59 -18 -0 -0 -0 -0 -0 -0 -0 -0 -0 -0 -0 -0 -0 -0 -0 -0 -0 -0 -0 -0 -0 -0 -0 -0 -0
-0 -2 -0 -0 -0 -0 -0 -0 -0 -0 -0 -0 -0 -0 -0 -0 -0 -0 -0 -0 -0 -0 -0 -0 -0 -0 -0 -0 -0 -0 -0 -0 -0 -0 -0 -0 -0 -0 -0 -0 -0 -0 -0 -0 -0 -0 -0 -0 -0
Wind_Speed
25 24 22 18 16 15 18 17 18 26 16 13 12 14 11 14 16 15 12 13 15 16 17 18 18 16 13 10 9 10 12 12 12 13 12 13 13 13 13 14 14 14 14 14 14 16 17 18 20
25 23 17 15 16 16 19 23 25 17 16 12 13 14 14 16 15 10 9 13 15 15 17 17 17 17 15 13 11 11 12 12 12 12 13 12 12 13 13 13 12 13 13 15 16 17 18 20 19
26 19 18 17 17 15 14 10 16 16 17 16 14 14 14 15 12 7 9 12 12 13 13 14 15 14 15 13 12 11 12 12 12 12 13 13 13 12 13 13 14 14 15 16 17 18 19 18 19
22 19 19 21 21 20 18 26 22 18 17 16 13 14 14 16 7 9 7 9 9 12 11 13 12 11 14 13 12 11 12 12 12 12 12 13 13 13 13 13 13 14 14 15 16 17 17 17 18
20 19 23 24 28 28 30 27 25 21 21 19 16 14 13 14 7 6 5 6 7 7 8 11 10 9 14 13 11 11 11 11 10 10 10 10 11 11 12 12 13 13 14 14 14 15 16 17 18
21 20 24 28 30 31 32 32 26 24 23 25 16 14 14 7 6 5 4 5 4 5 6 7 8 8 10 10 9 9 9 9 9 8 8 9 10 10 11 11 12 12 12 13 14 15 16 18 18
21 25 28 30 31 30 29 30 26 25 24 24 22 20 16 8 5 1 3 3 3 3 2 2 4 6 6 7 8 8 9 8 8 8 7 8 9 9 9 10 11 11 12 13 14 15 16 17 17
22 24 30 29 31 32 29 25 22 22 26 21 22 22 22 10 2 1 0 1 1 1 1 3 4 5 5 5 7 7 7 7 8 8 7 8 8 8 8 9 10 11 11 13 14 14 15 16 17
17 29 32 30 31 30 33 35 28 23 22 21 22 22 19 3 3 3 4 4 4 2 1 3 5 6 6 5 6 6 6 6 5 6 7 7 6 6 7 8 9 10 11 12 13 13 14 14 16
15 28 30 25 26 31 32 33 35 26 24 25 23 18 11 8 9 9 8 6 6 5 4 4 5 6 7 6 7 5 3 2 2 3 4 5 5 5 6 7 8 9 9 10 12 13 15 14 15
24 29 28 32 33 35 36 38 32 32 28 23 23 16 11 11 14 13 14 11 10 8 7 7 6 6 7 7 7 6 5 4 2 1 2 4 3 5 4 5 6 7 7 9 11 13 14 14 15
33 34 32 32 36 38 37 34 37 35 30 23 20 13 12 13 13 15 15 14 12 11 8 7 8 7 8 8 8 7 7 5 4 2 3 1 2 3 3 4 5 6 8 7 10 12 13 14 14
28 31 36 37 38 39 39 38 37 42 34 32 23 15 14 13 14 17 20 15 14 13 12 10 9 10 9 9 10 9 9 8 6 4 4 3 2 1 1 2 4 6 7 7 10 11 12 13 14
32 36 39 38 41 39 40 46 39 34 37 39 33 21 18 17 15 16 16 20 16 14 13 12 10 10 10 11 11 11 10 8 7 6 6 5 4 2 3 2 3 6 7 8 9 9 10 12 13
34 37 39 37 38 40 40 52 53 43 41 44 46 39 25 22 20 19 18 22 18 16 15 13 12 11 11 11 11 12 11 10 9 7 7 6 5 4 3 4 4 6 7 8 9 9 10 12 13
31 31 35 28 32 32 31 49 25 33 44 52 46 48 39 27 22 21 21 22 22 21 18 16 14 13 12 12 12 12 12 12 11 9 8 8 8 6 5 5 5 7 7 8 8 7 10 11 12
29 38 42 39 38 36 33 41 34 36 40 42 42 46 53 42 29 23 21 21 22 21 20 20 17 15 13 13 14 13 13 12 11 10 9 8 9 7 6 6 6 5 7 8 8 9 9 11 13
41 43 40 43 39 45 49 56 46 45 46 47 45 43 42 41 34 27 24 22 21 22 21 20 20 18 15 13 13 13 12 13 12 11 9 8 8 8 8 8 7 7 8 9 9 8 10 11 12
37 40 44 43 42 45 49 58 55 49 52 50 49 48 46 44 34 33 27 24 22 21 22 22 21 21 19 16 15 14 14 13 13 12 10 9 8 8 8 8 8 9 9 9 9 9 10 13 9
38 42 44 40 39 44 47 59 56 53 55 57 55 52 49 46 45 35 30 27 25 23 23 23 23 21 20 20 17 16 15 16 14 13 12 12 10 9 9 9 10 10 10 10 9 10 12 12 11
37 39 41 44 43 43 44 51 38 35 38 45 51 55 51 49 47 38 31 30 28 26 24 23 24 23 22 20 17 15 14 15 18 16 13 13 11 11 11 11 11 11 11 12 11 10 12 14 16
37 33 38 41 42 42 37 51 41 39 40 38 42 43 49 51 49 44 37 30 30 29 25 24 24 24 22 20 21 19 20 18 17 14 12 13 12 11 11 11 11 11 12 13 14 14 15 14 13
33 37 38 41 42 39 35 35 33 36 31 30 33 37 38 41 49 51 41 33 30 28 27 25 24 24 22 21 21 21 19 18 15 14 14 13 12 12 12 10 10 11 11 12 13 13 13 12 14
35 36 45 31 26 30 27 26 32 31 32 38 36 30 29 31 40 48 43 38 34 30 28 26 26 25 23 22 22 21 20 17 15 14 14 13 13 11 9 9 10 10 11 12 12 12 12 12 14
31 38 33 27 25 29 27 30 34 37 30 30 33 34 34 32 33 32 41 40 39 36 31 29 25 27 26 24 23 23 20 18 16 16 14 11 10 10 9 7 8 10 9 10 11 11 12 14 13
33 28 27 28 32 40 35 24 25 25 28 32 36 38 38 37 36 35 34 34 42 39 36 31 29 26 27 25 24 22 20 17 16 14 13 12 10 9 7 6 6 6 7 7 11 11 11 11 11
24 29 24 29 30 29 24 27 28 30 36 41 42 42 41 41 41 40 40 37 39 39 37 35 33 29 26 26 24 22 20 17 14 12 11 10 7 6 5 5 5 5 6 8 9 9 9 10 11
12 9 26 27 27 29 28 33 30 37 40 41 45 44 44 43 42 43 41 41 39 40 36 33 31 29 26 24 23 20 19 16 13 12 10 8 5 4 3 2 4 5 7 7 7 8 10 11 12
12 11 12 13 23 26 32 35 28 36 42 46 48 47 46 44 43 42 41 42 42 34 31 27 26 25 24 23 21 19 17 15 12 10 8 6 5 4 1 2 3 5 5 6 8 9 10 12 13
9 7 15 15 25 21 24 36 21 42 42 43 45 47 46 42 40 39 38 35 24 22 23 24 23 23 23 21 19 18 14 12 10 10 7 3 5 1 2 3 4 5 6 8 9 9 11 13 15
Wind_Direction
284 278 278 281 287 294 280 285 291 291 308 332 344 335 342 314 293 307 54 75 95 115 123 122 119 111 104 95 82 66 67 65 65 60 54 52 49 45 40 40 37 33 27 24 25 27 28 29 29
281 287 297 292 287 283 277 274 290 311 304 322 326 322 314 303 317 350 44 85 98 113 122 123 121 118 112 104 92 76 72 71 71 63 59 52 48 45 46 34 28 31 29 33 35 35 36 35 28
283 301 288 284 280 276 282 316 327 314 307 308 315 319 316 313 329 47 347 88 87 110 120 121 122 119 119 111 100 87 79 77 76 70 67 60 55 50 44 43 44 41 40 40 39 38 37 25 23
295 293 288 278 274 274 273 277 298 305 314 316 320 316 317 311 50 332 64 88 85 107 122 126 123 120 125 117 106 94 85 81 80 74 71 65 61 57 52 52 47 42 39 37 37 34 25 20 14
295 294 280 278 271 270 267 278 289 291 298 303 307 303 312 308 4 41 67 77 91 101 121 131 130 127 131 124 114 103 92 83 77 70 66 59 58 54 53 52 47 43 38 34 29 25 19 16 13
287 290 281 275 272 270 270 272 284 287 289 288 296 302 302 333 349 82 77 78 79 102 118 129 136 139 136 130 122 112 99 86 81 73 64 54 56 58 58 54 46 40 32 26 21 19 20 20 17
288 282 278 276 276 276 274 278 281 281 285 285 288 283 294 307 334 349 102 83 71 98 130 157 160 161 153 141 135 123 111 95 82 77 66 57 61 63 57 49 44 35 33 27 25 24 21 12 6
291 286 278 279 276 276 277 290 293 287 282 291 284 280 278 286 284 291 326 298 102 101 168 190 193 196 189 171 150 138 121 109 96 87 75 71 64 59 55 50 43 45 39 34 31 23 18 10 15
309 280 277 278 276 279 278 277 291 293 285 288 283 277 283 239 228 236 265 271 267 256 214 205 205 207 209 193 171 155 136 125 103 89 89 76 63 62 61 48 49 45 39 35 22 12 7 19 12
290 282 282 288 288 283 283 283 281 284 285 281 283 286 274 257 244 240 240 234 252 248 245 221 216 213 210 210 188 194 182 183 129 92 91 83 81 72 60 63 54 40 38 29 11 12 9 21 13
295 282 288 285 286 283 282 278 286 282 280 282 281 273 260 256 256 254 255 246 252 247 250 244 225 205 202 213 212 218 230 234 230 160 109 99 78 89 54 40 32 35 30 7 8 6 6 11 11
289 286 289 289 284 281 281 285 278 279 280 289 285 273 261 254 246 249 252 249 242 252 243 234 225 209 210 213 223 225 228 226 239 228 162 172 120 102 84 64 23 359 347 357 359 360 5 8 10
297 296 288 287 286 283 281 278 278 271 279 279 290 275 263 258 250 258 259 252 242 246 250 233 228 227 224 218 226 234 238 236 239 241 220 273 191 176 107 18 348 352 359 2 354 356 0 3 5
303 297 289 287 283 284 280 273 276 275 275 272 277 282 275 262 248 250 252 256 237 237 237 240 225 224 223 225 229 231 237 234 234 247 242 250 261 227 293 330 348 345 348 351 347 354 356 357 358
301 297 296 290 285 280 283 272 267 274 273 270 266 271 277 267 259 249 241 253 237 228 230 236 227 222 220 223 231 233 232 233 239 241 244 254 244 252 268 291 312 326 337 344 347 355 359 354 355
306 302 295 302 299 291 280 270 290 285 271 265 268 265 271 270 254 251 255 248 247 239 229 232 237 223 227 231 235 237 237 241 244 242 245 249 267 252 259 278 300 317 325 335 340 347 346 349 349
311 296 294 294 293 296 286 280 282 286 276 273 271 268 263 269 264 249 247 243 247 237 231 233 237 232 228 232 237 237 239 240 238 248 250 252 268 258 256 276 294 313 321 325 328 330 339 340 344
302 298 297 293 295 288 281 275 281 279 275 272 272 272 270 271 264 251 247 243 240 238 229 224 236 243 234 232 236 240 243 249 251 255 255 256 261 267 272 278 289 304 311 316 323 327 334 335 340
313 305 297 296 297 290 284 277 278 280 273 272 271 269 267 267 277 262 242 242 238 233 228 225 225 241 237 230 231 234 236 245 254 259 258 258 259 264 268 279 286 296 298 304 314 322 322 327 343
315 307 301 301 302 295 289 278 280 279 274 269 269 267 266 266 265 276 256 239 233 233 229 230 231 232 235 237 239 248 240 251 254 261 268 270 266 270 271 279 288 295 297 302 304 305 313 319 322
321 311 306 302 303 300 296 286 286 291 286 279 269 266 265 263 263 268 267 250 236 234 230 230 231 229 235 239 239 243 247 251 257 261 266 271 275 279 280 285 290 296 301 302 305 306 310 307 315
321 326 315 309 305 295 305 281 290 292 293 287 279 273 265 262 261 262 265 258 246 239 235 235 232 230 232 231 233 227 239 241 255 253 261 268 277 280 285 289 295 300 305 308 311 313 314 315 316
325 321 315 309 301 303 300 287 291 297 300 298 296 281 276 269 259 257 257 258 251 246 241 237 235 231 229 228 229 228 240 249 249 255 257 266 275 281 286 290 296 302 309 316 320 323 328 333 323
326 323 311 312 308 301 306 298 294 298 301 303 301 299 289 287 273 259 256 254 251 246 242 240 238 234 232 227 228 225 233 239 242 244 251 260 269 278 287 295 298 306 313 319 326 332 338 334 342
337 326 317 313 309 300 313 301 293 302 310 309 305 298 293 291 287 278 262 252 249 245 239 239 237 235 236 230 229 232 232 237 237 239 241 245 258 268 281 291 301 311 324 327 329 337 332 338 343
336 334 322 309 307 301 307 298 308 321 321 316 311 302 293 287 285 279 274 269 251 242 240 237 238 238 235 233 230 235 234 241 245 243 241 251 256 266 280 293 309 330 338 359 337 339 357 354 354
349 335 341 310 305 304 309 309 309 315 313 315 313 305 295 287 282 278 273 270 266 246 239 235 239 238 233 228 231 232 234 236 237 239 243 245 251 262 276 296 320 336 341 343 355 4 15 13 11
26 252 333 332 317 310 308 306 308 314 315 315 313 307 297 291 284 278 271 268 266 250 242 240 234 229 233 227 227 227 232 232 233 236 232 231 234 244 261 338 352 355 346 0 24 24 24 25 9
245 249 251 270 298 320 313 312 331 323 319 314 312 308 301 292 283 278 274 269 263 252 240 231 226 224 227 226 222 221 224 222 229 226 224 215 214 196 251 12 5 3 13 31 39 32 28 16 8
164 228 272 263 293 269 268 310 2 315 306 304 302 303 301 296 284 277 273 268 262 241 228 222 223 224 226 221 219 220 217 214 221 229 189 196 168 190 82 56 43 42 45 46 42 25 17 15 11